Location: *
(52.2090°N, 4.1550°W)
Time: 09:25:52
(UTC+00:00)

Cosmos 2026 Rocket - Pass Details

Date: 19 July 2019
Orbit: 939 x 1001 km, 82.9° (Epoch: 21 August)

Event Time Altitude Azimuth Distance (km) Brightness Sun altitude
Rises 22:30:58 0° 347° (NNW) 3,617 8.7 -13.0°
Reaches altitude 10° 22:33:29 10° 344° (NNW) 2,670 7.7 -13.2°
Maximum altitude 22:39:26 58° 267° (W) 1,099 4.4 -13.6°
Enters shadow 22:44:50 13° 191° (S) 2,476 5.6 -14.0°
